Weather History for West Plains, MO

Change the Weather History Date:

Saturday, March 2, 2013

  Actual Average Record
Temperature  
Mean Temperature 28 °F 42 °F  
Max Temperature 35 °F 54 °F 78 °F (1976)
Min Temperature 20 °F 31 °F 5 °F (1980)
Degree Days  
Heating Degree Days 37 23  
Month to date heating degree days 72 46  
Since 1 July heating degree days 3384 3510  
Cooling Degree Days 0 0  
Month to date cooling degree days 0 0  
Year to date cooling degree days 0 0  
Moisture  
Dew Point 17 °F    
Average Humidity 62    
Maximum Humidity 77    
Minimum Humidity 47    
Precipitation  
Precipitation 0.01 in 0.09 in 1.60 in (1997)
Month to date precipitation 0.01 0.19  
Year to date precipitation 7.33 5.75  
Sea Level Pressure  
Sea Level Pressure 30.25 in    
Wind  
Wind Speed 9 mph (NNW)    
Max Wind Speed 17 mph    
Max Gust Speed 23 mph    
Visibility 8 miles    
Events Snow    
T = Trace of Precipitation, MM = Missing Value Source: NWS Daily Summary

Daily Weather History Graph

Daily Weather History Graph

Search for Another Location

Airport:

Trip Planner

Search our weather history database for the weather conditions in past years. The results will help you decide how hot, cold, wet, or windy it might be!

Date:

Astronomy

Mar. 02, 2013 Rise Set
Actual Time 6:36 AM CST 6:03 PM CST
Civil Twilight 6:10 AM CST 6:29 PM CST
Nautical Twilight 5:40 AM CST 6:59 PM CST
Astronomical Twilight 5:10 AM CST 7:29 PM CST
Moon 11:33 PM CST (3/2) 9:13 AM CST (3/2)
Length of Visible Light 12h 18m
Length of Day
11h 26m
Waning Gibbous, 74% of the Moon is Illuminated
Mar 2
Waning Gibbous
Mar 4
Last Quarter
Mar 11
New
Mar 19
First Quarter
Mar 27
Full

Hourly Weather History & Observations

Time (CST) Temp. Windchill Dew Point Humidity Pressure Visibility Wind Dir Wind Speed Gust Speed Precip Events Conditions
12:51 AM 26.6 °F 19.1 °F 21.2 °F 80% 30.18 in 7.0 mi North 6.9 mph - 0.00 in   Overcast
12:53 AM 27.0 °F 20.5 °F 21.9 °F 81% 30.22 in 8.0 mi North 5.8 mph - 0.00 in   Overcast
1:53 AM 27.0 °F 19.5 °F 19.9 °F 75% 30.23 in 6.0 mi North 6.9 mph - 0.00 in Snow Light Snow
2:06 AM 26.6 °F 17.5 °F 19.4 °F 74% 30.19 in 8.0 mi North 9.2 mph - 0.00 in Snow Light Snow
2:53 AM 26.1 °F 17.6 °F 18.0 °F 71% 30.22 in 10.0 mi North 8.1 mph - 0.00 in   Overcast
3:53 AM 25.0 °F 16.3 °F 18.0 °F 75% 30.21 in 10.0 mi NNW 8.1 mph - N/A   Overcast
4:53 AM 24.1 °F 13.1 °F 17.1 °F 75% 30.22 in 10.0 mi NNW 11.5 mph - N/A   Scattered Clouds
5:53 AM 25.0 °F 15.5 °F 17.1 °F 72% 30.23 in 10.0 mi North 9.2 mph - N/A   Mostly Cloudy
6:43 AM 24.8 °F 16.1 °F 17.6 °F 74% 30.21 in 9.0 mi NNW 8.1 mph - 0.00 in   Overcast
6:53 AM 24.1 °F 17.0 °F 18.0 °F 77% 30.26 in 4.0 mi NNW 5.8 mph - 0.00 in Snow Light Snow
7:28 AM 24.8 °F 13.4 °F 15.8 °F 69% 30.23 in 9.0 mi NNW 12.7 mph 18.4 mph 0.00 in   Overcast
7:53 AM 24.1 °F 13.7 °F 17.1 °F 75% 30.28 in 5.0 mi NNW 10.4 mph - 0.00 in Snow Light Snow
8:31 AM 26.6 °F 15.7 °F 17.6 °F 69% 30.25 in 10.0 mi NNW 12.7 mph 18.4 mph 0.00 in   Overcast
8:53 AM 26.1 °F 15.0 °F 17.1 °F 69% 30.29 in 5.0 mi NNW 12.7 mph 18.4 mph 0.00 in Snow Light Snow
9:33 AM 26.6 °F 15.7 °F 17.6 °F 69% 30.25 in 2.0 mi NNW 12.7 mph - 0.00 in Snow Light Snow
9:41 AM 26.6 °F 15.7 °F 17.6 °F 69% 30.25 in 5.0 mi North 12.7 mph 18.4 mph 0.00 in Snow Light Snow
9:49 AM 28.4 °F 18.5 °F 17.6 °F 64% 30.25 in 8.0 mi North 11.5 mph - 0.00 in   Overcast
9:53 AM 27.0 °F 18.0 °F 19.0 °F 72% 30.29 in 4.0 mi NNW 9.2 mph - 0.00 in Snow Light Snow
10:03 AM 26.6 °F 16.2 °F 17.6 °F 69% 30.25 in 2.5 mi NNW 11.5 mph - 0.00 in Snow Light Snow
10:14 AM 26.6 °F 18.2 °F 17.6 °F 69% 30.25 in 5.0 mi NNW 8.1 mph - 0.00 in Snow Light Snow
10:53 AM 28.9 °F 20.4 °F 18.0 °F 64% 30.29 in 7.0 mi NNW 9.2 mph 17.3 mph 0.00 in Snow Light Snow
11:05 AM 26.6 °F 16.2 °F 17.6 °F 69% 30.25 in 3.0 mi NW 11.5 mph - 0.00 in Snow Light Snow
11:53 AM 27.0 °F 18.0 °F 17.1 °F 66% 30.29 in 10.0 mi NNW 9.2 mph 18.4 mph 0.00 in   Overcast
12:45 PM 30.2 °F 20.8 °F 17.6 °F 60% 30.23 in 10.0 mi NNW 11.5 mph - N/A   Overcast
12:53 PM 28.9 °F 18.6 °F 16.0 °F 58% 30.27 in 10.0 mi NNW 12.7 mph 20.7 mph 0.01 in   Overcast
1:53 PM 30.9 °F 22.2 °F 17.1 °F 57% 30.26 in 10.0 mi North 10.4 mph - N/A   Overcast
2:53 PM 34.0 °F 26.0 °F 18.0 °F 52% 30.24 in 10.0 mi North 10.4 mph 16.1 mph N/A   Overcast
3:53 PM 34.0 °F 26.6 °F 17.1 °F 50% 30.24 in 10.0 mi NW 9.2 mph - N/A   Clear
4:53 PM 33.1 °F 23.4 °F 16.0 °F 50% 30.25 in 10.0 mi North 13.8 mph - N/A   Clear
5:53 PM 30.0 °F 23.2 °F 15.1 °F 54% 30.25 in 10.0 mi WNW 6.9 mph - N/A   Clear
7:53 PM 26.1 °F 19.4 °F 15.1 °F 63% 30.27 in 10.0 mi WNW 5.8 mph - N/A   Clear
8:53 PM 24.1 °F 18.2 °F 15.1 °F 69% 30.27 in 10.0 mi WNW 4.6 mph - N/A   Clear
9:53 PM 23.0 °F 18.4 °F 15.1 °F 72% 30.26 in 10.0 mi West 3.5 mph - N/A   Clear
10:53 PM 21.0 °F 14.6 °F 15.1 °F 78% 30.25 in 10.0 mi West 4.6 mph - N/A   Clear
11:53 PM 19.9 °F 14.9 °F 14.0 °F 78% 30.25 in 10.0 mi WNW 3.5 mph - N/A   Clear